Regional Weather Roundup
Issued by NWS

Home | Current Version | Previous Version | Graphics & Text | Print | Product List | Glossary On
Versions: 1 2 3 4 5 6 7 8 9 10 11 12 13 14 15 16 17 18 19 20 21 22 23 24 25 26 27 28 29 30 31 32 33 34 35 36 37 38 39 40 41 42 43 44 45 46 47 48 49 50
000
ASUS43 KLOT 292309
RWRIL

ILLINOIS REGIONAL WEATHER ROUNDUP
NATIONAL WEATHER SERVICE CHICAGO/ROMEOVILLE IL
600 PM CDT MON MAY 29 2017

NOTE: "FAIR" INDICATES FEW OR NO CLOUDS BELOW 12,000 FEET WITH NO
SIGNIFICANT WEATHER AND/OR OBSTRUCTIONS TO VISIBILITY.

* THESE STATIONS ARE NOT UNDER NWS QUALITY CONTROL. THEY ALSO MAY NOT
  REPORT WEATHER SUCH AS PRECIPITATION OR FOG.

ILZ001-002-007-009-015-016-024-300000-
NORTHWEST ILLINOIS

CITY           SKY/WX    TMP DP  RH WIND       PRES   REMARKS
MOLINE         MOSUNNY   75  43  31 NW18G25   29.86S
STERLING*      MOSUNNY   73  46  38 W18G24    29.86R
SAVANNA*       MOSUNNY   73  44  36 W10G18    29.85S
$$

ILZ003-004-008-010-011-017-018-300000-
NORTH CENTRAL ILLINOIS

CITY           SKY/WX    TMP DP  RH WIND       PRES   REMARKS
ROCKFORD       MOSUNNY   73  47  39 NW12G23   29.85S
FREEPORT*      MOSUNNY   70  45  40 W12G20    29.86F
ROCHELLE*      PTSUNNY   71  46  42 W15       29.86S
DE KALB*       CLOUDY    72  46  40 W20       29.86S
PERU*          SUNNY     72  42  34 W16G23    29.87S
$$

ILZ005-006-012>014-019>023-300000-
NORTHEAST ILLINOIS

CITY           SKY/WX    TMP DP  RH WIND       PRES   REMARKS
CHICAGO-OHARE  PTSUNNY   73  43  33 W21G26    29.84R
CHICAGO-MIDWAY MOSUNNY   75  43  31 W21G26    29.84R
AURORA         MOSUNNY   74  45  35 W21G28    29.85S
LANSING*       MOSUNNY   75  47  37 W17G25    29.84F
JOLIET*        MOSUNNY   76  42  29 W15G24    29.86R
WAUKEGAN       MOSUNNY   71  45  39 W8G18     29.82R
DUPAGE AIRPORT MOSUNNY   72  45  37 W17G25    29.84S
KANKAKEE*      PTSUNNY   78  40  25 W15G22    29.86S
WHEELING       MOSUNNY   72  44  36 W13G22    29.84S
MORRIS*        MOSUNNY   75  40  29 W21G26    29.85R
ROMEOVILLE*    MOSUNNY   74  49  41 W15       29.85S
NORTHERLY ISL    N/A     73  38  27 W20         N/A
$$

LMZ740>746-300000-
SOUTHERN LAKE MICHIGAN

STATION/POSITION SKY/WX   TEMP    WIND        PRES    VSBY  WAVE
                          AIR SEA DIR/SP/G                  HT/PER
                          (F)     (DEG/KT/KT) (MB)    (MI)  (FT/S)
SOUTHERN BUOY              55 48  270/  4/  6 1010.2          2/ 4
WILMETTE HARBOR            64 54  270/ 10/ 14   N/A           2/ 3
HARRISON CRIB              73     270/ 24/ 27   N/A
BURNHAM HARBOR             73     260/ 13/ 22   N/A
CALUMET HARBOR             76     260/  8/ 17 1009.9S
BURNS HARBOR               67     280/ 13/ 15 1010.8R
MICHIGAN CITY              64     260/ 12/ 12   N/A
MICHIGAN CITY 6N           61 56  300/  8/ 10   N/A           2/ 4
ST. JOSEPH                 61 60  330/  2/  4 1010.9          1/ 2
$$

ILZ025>027-034>036-040-047-049-050-058-095>099-300000-
WEST-CENTRAL ILLINOIS

CITY           SKY/WX    TMP DP  RH WIND       PRES   REMARKS
QUINCY         SUNNY     77  43  29 W16       29.92S
GALESBURG*     MOSUNNY   74  42  32 W18G26    29.89S
MACOMB*        MOSUNNY   77  39  25 W17       29.92S
JACKSONVILLE*  SUNNY     77  46  32 NW12G17   29.91R
PITTSFIELD*    SUNNY     78  47  33 W8G17     29.93S
$$

ILZ028>032-037-038-041>044-048-051>054-059>061-300000-
CENTRAL ILLINOIS

CITY           SKY/WX    TMP DP  RH WIND       PRES   REMARKS
PONTIAC        PTSUNNY   76  42  29 NW18      29.88R
BLOOMINGTON    MOSUNNY   77  47  34 W10       29.89F
DECATUR        MOSUNNY   77  48  35 NW13      29.88S
PEORIA         SUNNY     76  38  25 W15G25    29.89R
LACON*         PTSUNNY   75  43  31 NW13G22   29.87S
LINCOLN*       MOSUNNY   79  48  33 W6        29.89S
SPRINGFIELD    SUNNY     80  47  31 W8        29.90R
TAYLORVILLE    CLOUDY    80  51  35 NW13      29.89R HX  80
$$

ILZ033-039-045-046-055>057-062-063-300000-
EAST-CENTRAL ILLINOIS

CITY           SKY/WX    TMP DP  RH WIND       PRES   REMARKS
CHAMPAIGN      MOSUNNY   78  44  29 W20       29.87F
RANTOUL*       PTSUNNY   80  47  31 W18G24    29.87F
MATTOON        MOSUNNY   80  46  30 W10G21    29.87F
PARIS*         MOSUNNY   80  49  34 W12       29.87F
$$

ILZ079-100>102-300000-
SOUTHWEST ILLINOIS

CITY           SKY/WX    TMP DP  RH WIND       PRES   REMARKS
ALTON          PTSUNNY   72  55  56 W9        29.92S
BELLEVILLE     TSTM      69  56  61 NW13G22   29.93R
CAHOKIA*       TSTM      67  59  75 NW7       29.92S
SPARTA*        MOSUNNY   83  52  33 W14       29.91R HX  82
$$

ILZ064>066-069>071-074>076-080>082-084>086-088>090-092>094-300000-
SOUTH-CENTRAL ILLINOIS

CITY           SKY/WX    TMP DP  RH WIND       PRES   REMARKS
CARBONDALE     SUNNY     84  55  36 SW9       29.90F HX  83
CAIRO*         CLOUDY    83  59  44 SW8       29.93S HX  83
EFFINGHAM*     PTSUNNY   79  51  36 SW8       29.91R
MARION         MOSUNNY   84  52  32 SW6       29.92F HX  82
MT. VERNON       N/A     84  51  31 SW10      29.90S HX  82
CENTRALIA*     PTSUNNY   82  51  33 SW10      29.89R HX  81
SALEM*         MOSUNNY   84  44  24 SW14      29.89R HX  81
METROPOLIS*    CLOUDY    83  55  38 SW7       29.94S HX  82
$$

ILZ067-068-072-073-078-083-087-091-300000-
SOUTHEAST ILLINOIS

CITY           SKY/WX    TMP DP  RH WIND       PRES   REMARKS
LAWRENCEVILLE  SUNNY     84  44  24 W12       29.89S HX  82
FLORA*         SUNNY     85  47  26 SW13      29.89S HX  83
FAIRFIELD*     SUNNY     83  46  27 SW6       29.89S HX  81
HARRISBURG*    SUNNY     83  54  36 SW7       29.91F HX  82
ROBINSON*      SUNNY     83  44  25 W8        29.89S HX  81
CARMI*         SUNNY     85  46  26 SW12      29.90S HX  82
$$

ABBREVIATIONS USED IN REMARKS
   TC - TEMPERATURE IN CELSIUS
  WCI - WIND CHILL INDEX
   HX - HEAT INDEX
  VSB - VISIBILITY
$$





USA.gov is the U.S. government's official web portal to all federal, state and local government web resources and services.